Location: Asheville, NC
(35.6000°N, 82.5500°W)
Time: 06:46:59
(UTC-05:00)

KAITUO 1B - Pass Details

Date: 06 January 2018
Orbit: 500 x 521 km, 97.5° (Epoch: 18 January)

Event Time Altitude Azimuth Distance (km) Brightness Sun altitude
Rises 18:06:28 0° 169° (S) 2,628 ? -7.1°
Reaches altitude 10° 18:08:33 10° 170° (S) 1,746 ? -7.5°
Maximum altitude 18:12:19 82° 257° (WSW) 529 ? -8.3°
Drops below altitude 10° 18:16:07 10° 347° (NNW) 1,757 ? -9.0°
Sets 18:18:14 0° 348° (NNW) 2,647 ? -9.4°
